www.pogodaiklimat.ru

Погода и климат >> Архив погоды >> Россия >> Адыгея >> Гузерипль


ПОГОДА в Гузерипле

  • Прогноз погоды в Гузерипле
  • Монитор погоды в Гузерипле

АРХИВ ПОГОДЫ в Гузерипле

Время (UTC), дата Ветер
(напр.,м/с)
 
Видим.   Явления Облачность Т
(С)
Тd
(С)
f
(%)
Тe
(С)
Тes
(С)
Комфортность P
(гПа)
Po
(гПа)
Тmin
(С)
Tmax
(С)
R
(мм)
R24
(мм)
S
(см)
00 17.01 штиль 0 1000 м ливневой снег 10/10 300 м
[Cb cap]
-4.5 -4.5 100 -6 -6 1015.5 932.1
03 17.01 штиль 0 10 км слаб. ливневой снег 10/10 600 м
[Cb cap]
-5.7 -5.7 100 -7 -7 1017.0 933.1 -5.7 13 38
06 17.01 штиль 0 20 км {ливн. осадки} 6/0
[Cc]
-5.4 -5.4 100 -7 -5 1018.8 934.9 -5.8
09 17.01 штиль 0 20 км 3/0
[Cc]
0.0 -2.4 84 -1 +5 1017.9 935.6
12 17.01 штиль 0 20 км 3/0
[Ci fib]
-1.3 -3.0 88 -2 0 1018.6 935.9
15 17.01 штиль 0 20 км ясно -4.4 -4.4 100 -6 -6 1022.3 938.4 +2.8
18 17.01 З 1 20 км ясно -6.4 -6.4 100 -9 -9 1025.3 940.5
21 17.01 З 1 20 км ясно -8.3 -8.5 98 -11 -11 1027.5 941.9
00 18.01 З 1 20 км ясно -10.0 -10.4 97 -12 -12 1028.9 942.7
03 18.01 З 1 20 км ясно -11.1 -11.7 95 -13 -13 1029.3 942.7 -11.1 22
06 18.01 ЮЗ 1 20 км ясно -11.0 -11.6 95 -13 -12 1030.1 943.5 -11.7
09 18.01 штиль 0 20 км ясно -1.0 -5.3 73 -2 +4 1025.4 942.1
12 18.01 З 2 20 км ясно -1.8 -3.0 91 -6 -4 1023.6 940.3
15 18.01 З 1 20 км ясно -3.8 -3.8 100 -6 -6 1025.1 941.1 0.0
18 18.01 З 1 20 км 4/0
[Ci]
-5.8 -5.8 100 -8 -8 1026.2 941.5
21 18.01 ЮЗ 1 20 км 3/0
[Ci]
-7.5 -7.7 98 -10 -10 1027.1 941.8
00 19.01 З 1 20 км 6/0
[Ci]
-8.7 -9.0 98 -11 -11 1027.0 941.3
03 19.01 З 1 20 км ясно -8.9 -9.3 97 -11 -11 1026.3 940.6 -9.0 16
06 19.01 ЮЗ 1 20 км 8/0
[Cc]
-8.3 -8.8 96 -11 -10 1026.4 940.9 -9.5
09 19.01 ЮЗ 1 20 км 10/0
[Ac trans Cs]
+0.3 -2.7 80 -2 +2 1022.5 939.9
12 19.01 штиль 0 20 км 10/0
[Cs]
+2.2 +0.6 89 +1 +3 1021.0 939.1
15 19.01 ЮЗ 1 20 км 10/0
[Cs]
-0.1 -0.1 100 -2 -2 1022.7 940.0 +3.3
18 19.01 штиль 0 20 км 10/6 1500 м
[Sc Ci]
-0.3 -0.3 100 -2 -2 1023.5 940.7
21 19.01 штиль 0 20 км 8/8 1500 м
[Sc]
-0.7 -0.7 100 -2 -2 1024.5 941.5
00 20.01 З 1 20 км 10/10 1500 м
[Sc]
-0.1 -0.1 100 -2 -2 1024.1 941.4
03 20.01 З 1 20 км 10/10 1000 м
[Sc]
-0.4 -0.4 100 -3 -3 1024.4 941.5 -1.0 13
06 20.01 штиль 0 20 км 9/9 1000 м
[Sc]
+0.2 +0.2 100 -1 -1 1024.7 942.0
09 20.01 ЮВ 1 20 км 8/8 1500 м
[Sc]
+5.6 +1.5 75 +5 +6 1023.0 941.9
12 20.01 З 1 20 км 8/5 1000 м
[Sc diur, vesp Ci sp]
+2.9 +2.4 97 +1 +2 1023.0 941.2
15 20.01 ЮЗ 1 20 км 8/8 1000 м
[Sc]
+0.7 +0.7 100 -2 -2 1024.1 941.6 +5.9
18 20.01 штиль 0 20 км 5/0
[Ci]
-1.0 -1.0 100 -2 -2 1024.9 941.8
21 20.01 штиль 0 4000 м дымка 3/0
[Ci fib]
-2.1 -2.1 100 -4 -4 1025.4 941.9
00 21.01 ЮЗ 1 20 км 1/0
[Ci fib]
-2.6 -2.6 100 -5 -5 1024.6 941.0
03 21.01 ЮЗ 1 20 км 3/0
[Ci]
-2.9 -2.9 100 -5 -5 1023.2 939.6 -3.1 5
06 21.01 штиль 0 20 км 6/0
[Ci]
-2.5 -2.5 100 -4 -3 1021.9 938.6 -3.5
09 21.01 З 1 20 км 1/0
[Cc]
+3.8 +1.0 82 +2 +8 1018.2 937.0
12 21.01 Ю 2 20 км 8/4 1000 м
[Sc Ac cast Cc]
+9.2 -4.2 39 +8 +9 1015.0 935.4
15 21.01 З 1 20 км 8/4 1000 м
[Sc Cc]
+5.4 -2.4 57 +5 +5 1015.7 935.2 +10.7
18 21.01 ЮЗ 2 20 км 9/9 1000 м
[Sc]
+5.8 -5.1 45 +4 +4 1015.6 935.1
21 21.01 Ю 2
{12}
20 км 8/5 1000 м
[Sc Cs]
+5.7 -3.8 50 +4 +4 1015.5 935.0
00 22.01 ЮЗ 1
{12}
20 км 8/5 1000 м
[Sc Cs]
+1.2 +0.9 98 -1 -1 1017.5 935.6
03 22.01 З 1 20 км 10/10 1000 м
[Cb cap]
+0.8 +0.8 100 -1 -1 1017.1 935.1 +0.6 <0.5
06 22.01 З 1 10 км слаб. ливневой дождь 10/10 600 м
[Cb cap]
+1.4 +1.4 100 -1 -1 1017.8 936.0
09 22.01 ЮВ 1 20 км {ливн. осадки} 10/10 600 м
[Cb cap]
+2.7 +1.9 94 +1 +1 1018.2 936.7
12 22.01 СВ 2 20 км {ливн. осадки} 8/8 600 м
[Cb cap]
+4.1 -0.3 73 +2 +2 1017.6 936.5
15 22.01 СВ 1 20 км 5/5 1000 м
[Cb cap]
+0.8 -1.5 85 -1 -1 1019.9 937.7 +5.4 2
18 22.01 В 2 20 км ясно -0.7 -2.4 88 -4 -4 1021.4 938.6
21 22.01 штиль 0 20 км ясно -2.3 -2.3 100 -4 -4 1021.7 938.5
00 23.01 штиль 0 20 км ясно -2.5 -2.5 100 -4 -4 1021.2 938.0
03 23.01 штиль 0 20 км ясно -2.9 -2.9 100 -4 -4 1020.3 937.0 -2.9 0
06 23.01 штиль 0 20 км 8/0
[Cs]
-2.5 -2.5 100 -4 -3 1020.5 937.3 -3.3
09 23.01 штиль 0 20 км 6/0
[Ci]
+3.4 -2.1 67 +3 +8 1017.4 936.1
12 23.01 Ю 2 20 км 3/0
[Ac cast]
+9.1 -5.1 36 +8 +10 1014.1 934.6
15 23.01 ЮЗ 1 20 км 1/0
[Ac cast]
+3.9 -1.7 67 +3 +3 1015.4 934.5 +9.8
18 23.01 СЗ 1 20 км 3/0
[Ci]
+2.6 -2.3 70 +1 +1 1016.1 934.7

 

Местоположение метеостанции Гузерипль (Адыгея, Россия): широта 44.00 долгота 40.13 высота над уровнем моря 677 м.

В архиве по умолчанию представлена погода в Гузерипле за последнюю неделю. Архивные данные за месяц целиком и за предыдущие месяцы, начиная с января 2011 года, Вы можете получить, выбрав интересующий диапазон дат из раскрывающегося списка и нажав кнопку "Ввод!".


*Определитесь, кто Вы:
робот инопланетянин человек

Внимание! Время в таблицах - всемирное. Для получения местного времени необходимо прибавить поправку, которая равна 3 ч.

Смотрите также архив погоды в соседних городах и на ближайших метеорологических станциях:

Погода в Красной Поляне (Краснодарский край, Россия) (36 км)
Погода на Кордоне Лаура (Краснодарский край, Россия) (36 км)
Погода в Горная Карусель 1500 (Краснодарский край, Россия) (41 км)
Погода в Горная Карусель 1000 (Краснодарский край, Россия) (41 км)
Погода в Кепше (Краснодарский край, Россия) (43 км)
Погода в Солох Ауле (Краснодарский край, Россия) (46 км)
Погода в Шунтуке (Адыгея, Россия) (52 км)
Погода в Кичмае (Краснодарский край, Россия) (53 км)
Погода в Псебае (Краснодарский край, Россия) (54 км)
Погода в Сочи (Краснодарский край, Россия) (55 км)

Пояснения к столбцам:

Ветер - указаны скорость ветра в м/с - средняя за 10 мин, порывы в срок и между сроками (в фигурных скобках) и направление, откуда дует ветер: С - северный, СВ - северо-восточный, В - восточный, ЮВ - юго-восточный, Ю - южный, ЮЗ - юго-западный, З - западный, СЗ - северо-западный.
Видимость - горизонтальная дальность видимости в метрах или километрах. При видимости от 1 до 10 км при отсутствии осадков обычно наблюдается дымка, при ухудшении видимости до 1 км и менее - туман. В сухую погоду видимость может ухудшаться дымом, пылью или мглою.
Явления - указаны атмосферные явления, наблюдавшиеся в срок или в последний час перед сроком; фигурными скобками обозначены явления, наблюдавшиеся между сроками (за 1-3 часа до срока); квадратными скобками обозначены град или гололедные отложения с указанием их диаметра в мм.
Облачность - указаны через наклонную черту общая и нижняя облачность в баллах и высота нижней границы облаков в метрах; квадратными скобками обозначены формы облаков: Ci - перистые, Cs - перисто-слоистые, Cc - перисто-кучевые, Ac - высококучевые, As - высокослоистые, Sc - слоисто-кучевые, Ns - слоисто-дождевые, Cu - кучевые, Cb - кучево-дождевые. Подробнее классификацию облаков см. в Атласе облаков (PDF).
T - Температура воздуха - температура, измеренная на высоте 2 м над землей.
Td - Температура точки росы - температура, при понижении до которой содержащийся в воздухе водяной пар достигнет насыщения.
f - Относительная влажность воздуха - влажноcть воздуха, измеренная на высоте 2 м над землей.
Te - Эффективная температура - температура, которую ощущает одетый по сезону человек в тени. Характеристика душности погоды. При расчете учитывается влияние влажности воздуха и скорости ветра на теплоощущения человека.
Tes - Эффективная температура на солнце - температура, которую ощущает человек, с поправкой на солнечный нагрев. Характеристика знойности погоды. Зависит от высоты солнца над горизонтом, облачности и скорости ветра. Ночью, в пасмурную погоду, а также при ветре 12 м/с и более поправка равна нулю.
P - Атмосферное давление - приведенное к уровню моря атмосферное давление.
Po - Атмосферное давление - измеренное на уровне метеостанции атмосферное давление.
Tmin - Минимальная температура - минимум температуры воздуха на высоте 2 м над землей.
Tmax - Максимальная температура - максимум температуры воздуха на высоте 2 м над землей.
R - Количество осадков - Количество выпавших осадков за период времени, мм. При наведении курсора мыши на число - период времени, за который выпало указанное количество осадков.
R24 - Количество осадков - Количество выпавших осадков за 24 часа, мм.
S - Снежный покров - Высота снежного покрова, см. При наведении курсора мыши на число - состояние снежного покрова и степень покрытия местности в баллах.